Weather History for Marathon, FL

Change the Weather History Date:

Monday, November 4, 2013

  Actual Average Record
Temperature  
Mean Temperature 78 °F 77 °F  
Max Temperature 83 °F 82 °F 87 °F (2002)
Min Temperature 73 °F 73 °F 63 °F (1999)
Degree Days  
Heating Degree Days 0 0  
Month to date heating degree days 0 0  
Since 1 July heating degree days 0 0  
Cooling Degree Days 13 12  
Month to date cooling degree days 56 50  
Year to date cooling degree days 4917 4489  
Growing Degree Days 28 (Base 50)    
Moisture  
Dew Point 67 °F    
Average Humidity 65    
Maximum Humidity 82    
Minimum Humidity 47    
Precipitation  
Precipitation 0.23 in 0.14 in 3.11 in (2003)
Month to date precipitation 0.23 0.61  
Year to date precipitation 43.74 41.94  
Snow  
Snow 0.00 in - - ()
Month to date snowfall 0.0  
Since 1 July snowfall 0.0  
Since 1 September snowfall 0.0  
Snow Depth 0.00 in    
Sea Level Pressure  
Sea Level Pressure 30.00 in    
Wind  
Wind Speed 17 mph (NE)    
Max Wind Speed 24 mph    
Max Gust Speed 32 mph    
Visibility 9 miles    
Events Rain    
T = Trace of Precipitation, MM = Missing Value Source: NWS Daily Summary

Daily Weather History Graph

Daily Weather History Graph

Search for Another Location

Airport:

Trip Planner

Search our weather history database for the weather conditions in past years. The results will help you decide how hot, cold, wet, or windy it might be!

Date:

Astronomy

Nov. 04, 2013 Rise Set
Actual Time 6:33 AM EST 5:41 PM EST
Civil Twilight 6:09 AM EST 6:05 PM EST
Nautical Twilight 5:42 AM EST 6:32 PM EST
Astronomical Twilight 5:15 AM EST 6:59 PM EST
Moon 7:36 AM EST (11/4) 6:52 PM EST (11/4)
Length of Visible Light 11h 55m
Length of Day
11h 08m
New Moon, 2% of the Moon is Illuminated
Nov 4
New Moon
Nov 10
First Quarter
Nov 17
Full
Nov 25
Last Quarter
Dec 2
New

Hourly Weather History & Observations

Time (EST) Temp. Heat Index Dew Point Humidity Pressure Visibility Wind Dir Wind Speed Gust Speed Precip Events Conditions
12:53 AM 73.9 °F - 64.0 °F 71% 29.99 in 10.0 mi NNE 13.8 mph - N/A   Partly Cloudy
1:53 AM 73.9 °F - 64.0 °F 71% 29.97 in 10.0 mi NNE 15.0 mph - N/A   Overcast
2:53 AM 73.9 °F - 66.0 °F 76% 29.97 in 10.0 mi NE 15.0 mph - N/A   Partly Cloudy
3:53 AM 73.9 °F - 66.0 °F 76% 29.97 in 10.0 mi NNE 13.8 mph - N/A   Partly Cloudy
4:53 AM 73.9 °F - 66.0 °F 76% 29.97 in 10.0 mi NNE 13.8 mph 20.7 mph N/A   Clear
5:53 AM 73.9 °F - 66.0 °F 76% 29.98 in 10.0 mi NNE 13.8 mph - N/A   Clear
6:53 AM 73.9 °F - 66.9 °F 79% 30.00 in 10.0 mi NE 13.8 mph - N/A   Mostly Cloudy
7:53 AM 75.9 °F - 66.0 °F 71% 30.02 in 10.0 mi NE 13.8 mph - N/A   Clear
8:53 AM 79.0 °F - 64.0 °F 60% 30.04 in 10.0 mi NE 20.7 mph 28.8 mph N/A   Clear
9:53 AM 81.0 °F 81.9 °F 62.1 °F 52% 30.05 in 10.0 mi NE 20.7 mph 28.8 mph N/A   Clear
10:53 AM 81.0 °F 82.2 °F 63.0 °F 54% 30.05 in 10.0 mi NE 21.9 mph - N/A   Clear
11:53 AM 82.0 °F 83.0 °F 62.1 °F 51% 30.03 in 10.0 mi NE 20.7 mph 28.8 mph N/A   Clear
12:53 PM 82.0 °F 82.7 °F 61.0 °F 49% 30.01 in 10.0 mi NE 19.6 mph 27.6 mph N/A   Clear
1:53 PM 82.0 °F 83.0 °F 62.1 °F 51% 29.99 in 10.0 mi NE 18.4 mph 24.2 mph N/A   Clear
2:53 PM 82.0 °F 83.4 °F 64.0 °F 54% 29.98 in 10.0 mi NE 15.0 mph - N/A   Clear
3:53 PM 81.0 °F 84.1 °F 69.1 °F 67% 29.98 in 10.0 mi NE 17.3 mph - N/A   Clear
4:53 PM 80.1 °F 83.2 °F 70.0 °F 71% 29.98 in 10.0 mi NE 16.1 mph - N/A   Clear
5:53 PM 78.1 °F - 71.1 °F 79% 29.98 in 10.0 mi NE 16.1 mph - N/A   Scattered Clouds
6:53 PM 77.0 °F - 71.1 °F 82% 29.99 in 10.0 mi NE 17.3 mph 27.6 mph N/A   Overcast
7:44 PM 73.9 °F - 71.1 °F 91% 30.02 in 2.5 mi NNE 15.0 mph 27.6 mph 0.03 in Rain Rain
7:53 PM 73.0 °F - 71.1 °F 93% 30.02 in 2.0 mi NNE 9.2 mph - 0.07 in Rain Heavy Rain
7:57 PM 73.0 °F - 71.1 °F 93% 30.02 in 3.0 mi NNE 10.4 mph - 0.01 in Rain Rain
8:01 PM 73.0 °F - 71.1 °F 93% 30.02 in 4.0 mi NNE 11.5 mph - 0.01 in Rain Light Rain
8:20 PM 73.0 °F - 71.1 °F 93% 30.01 in 9.0 mi NNE 11.5 mph 20.7 mph 0.04 in Rain Light Rain
8:53 PM 73.9 °F - 66.0 °F 76% 30.01 in 10.0 mi NNE 23.0 mph 31.1 mph 0.06 in   Overcast
9:03 PM 73.9 °F - 64.0 °F 71% 30.01 in 10.0 mi NE 20.7 mph 32.2 mph N/A   Overcast
9:50 PM 75.2 °F - - N/A% 30.02 in 4.0 mi NE 21.9 mph 27.6 mph 0.05 in Rain Heavy Rain
9:53 PM 73.9 °F - - N/A% 30.01 in 2.5 mi NE 15.0 mph 27.6 mph 0.09 in Rain Heavy Rain
10:05 PM 75.0 °F - - N/A% 30.01 in 8.0 mi NE 18.4 mph 28.8 mph 0.01 in Rain Light Rain
10:21 PM 75.0 °F - - N/A% 30.01 in 10.0 mi NE 19.6 mph 29.9 mph 0.01 in   Overcast
10:53 PM 75.0 °F - - N/A% 30.01 in 10.0 mi NE 17.3 mph 26.5 mph 0.01 in   Overcast
11:53 PM 77.0 °F - - N/A% 30.00 in 10.0 mi NE 17.3 mph 27.6 mph N/A   Overcast